Regional Weather Roundup
Issued by NWS

Home | Current Version | Previous Version | Text Only | Print | Product List | Glossary On
Versions: 1 2 3 4 5 6 7 8 9 10 11 12 13 14 15 16 17 18 19 20 21 22 23 24 25 26 27 28 29 30 31 32 33 34 35 36 37 38 39 40 41 42 43 44 45 46 47 48 49 50
000
ASUS43 KMPX 011801
RWRMN
WEATHER ROUNDUP FOR MINNESOTA
NATIONAL WEATHER SERVICE TWIN CITIES/CHANHASSEN MN
100 PM CDT MON SEP 01 2014


NOTE: "FAIR" INDICATES FEW OR NO CLOUDS BELOW 12,000 FEET WITH NO
SIGNIFICANT WEATHER AND/OR OBSTRUCTIONS TO VISIBILITY. N/A MEANS
CURRENT SKY AND/OR WEATHER CONDITIONS ARE NOT AVAILABLE.

MNZ060>063-068>070-011900-
   Twin Cities Metro

CITY           SKY/WX    TMP DP  RH WIND       PRES   REMARKS
TWIN CITIES    MOSUNNY   74  58  57 W9G18     29.73S
6HR MIN TEMP:  66; 6HR MAX TEMP:  75;

ST PAUL        MOSUNNY   73  59  61 NW10      29.72S
CRYSTAL        PTSUNNY   75  57  53 NW10      29.72R
LAKEVILLE      SUNNY     72  61  68 NW9       29.74S
EDEN PRAIRIE   MOSUNNY   74  59  59 W5        29.73S
6HR MIN TEMP:  66; 6HR MAX TEMP:  75; 6HR PCP:  0.01;

SOUTH ST PAUL  MOSUNNY   73  58  58 NW9       29.72S
LAKE ELMO      FAIR      73  61  64 NW9       29.73S
$$
MNZ001>005-007-008-013>017-022>024-027-028-011900-
   Northwest Minnesota

CITY           SKY/WX    TMP DP  RH WIND       PRES   REMARKS
BEMIDJI        SUNNY     67  52  58 NW13G20   29.72F
HALLOCK        SUNNY     72  54  53 SW8       29.69S
ROSEAU         SUNNY     70  55  60 NW12      29.68S
WARROAD        MOSUNNY   70  55  60 W10       29.68S
THIEF RVR FALL SUNNY     68  54  60 NW7       29.72S
CROOKSTON      SUNNY     72  54  53 W5        29.72S
FOSSTON        SUNNY     70  54  56 NW8       29.74S
DETROIT LAKES  SUNNY     68  55  64 NW7       29.77S
MOORHEAD       MOSUNNY   72  57  60 CALM      29.75S
PARK RAPIDS    SUNNY     70  48  45 NW15      29.73S
MAHNOMEN       FAIR      68  56  64 W5        29.75S
$$
MNZ006-009>011-018-025>026-011900-
   North Central Minnesota

CITY           SKY/WX    TMP DP  RH WIND       PRES   REMARKS
BAUDETTE       MOSUNNY   67  53  61 NW12      29.67R
FLAG ISLAND    SUNNY     64  54  68 NW9       29.65S
INTL FALLS     PTSUNNY   65  59  81 W13       29.64S
6HR MIN TEMP:  58; 6HR MAX TEMP:  65; 6HR PCP:  0.03;

WASKISH        MOSUNNY   68  55  64 W5        29.69S
BIG FORK       MOSUNNY   66  54  63 NW8G16    29.68S
LONGVILLE      MOSUNNY   68  54  60 W10G18    29.71S
GRAND RAPIDS   MOSUNNY   66  52  59 W14G22    29.70R
CRANE LAKE     CLOUDY    63  57  82 NW5       29.64R
ORR            CLOUDY    63  57  82 CALM      29.63S
COOK           PTSUNNY   63  61  94 W8        29.66S
WALKER         FAIR      67  50  53 NW8G16    29.72S
$$
MNZ012-019>021-037-011900-
   Northeast Minnesota

CITY           SKY/WX    TMP DP  RH WIND       PRES   REMARKS
DULUTH         CLOUDY    68  56  65 W12G22    29.66S
6HR MIN TEMP:  61; 6HR MAX TEMP:  68;

ELY            PTSUNNY   63  55  77 NW12      29.63S
HIBBING        PTSUNNY   68  56  65 W8        29.67R
EVELETH        CLOUDY    63  55  77 W9        29.67S
DULUTH HARBOR  CLOUDY    70  61  73 NW15      29.66R
TWO HARBORS    CLOUDY    66  55  68 W10G17    29.62S
SILVER BAY     CLOUDY    66  61  82 W6        29.61R
GRAND MARAIS     N/A     69  62  78 W6        29.56R
G MARAIS ARPRT LGT RAIN  61  55  82 W7G16     29.60S
$$
MNZ029>031-032-039>041-046>048-054>057-064-011900-
   West Central Minnesota

CITY           SKY/WX    TMP DP  RH WIND       PRES   REMARKS
FERGUS FALLS   MOSUNNY   70  55  60 W7        29.76F
WHEATON        SUNNY     70  57  64 W7        29.79S
MORRIS         SUNNY     73  59  60 W9        29.78R
ALEXANDRIA     MOSUNNY   72  57  59 NW14      29.78S
ELBOW LAKE     FAIR      70  56  61 NW7       29.77S
WADENA         SUNNY     70  54  56 NW13G18   29.75S
GLENWOOD       MOSUNNY   72  55  56 W15       29.78S
APPLETON       SUNNY     75  55  50 W7        29.79R
BENSON         MOSUNNY   73  59  60 NW10      29.78S
ORTONVILLE     SUNNY     73  54  49 W7        29.79S
MADISON        SUNNY     75  55  50 NW8       29.80S
WILLMAR        FAIR      73  55  53 NW12      29.80R
$$
MNZ033>034-036-042>043-049>051-058-059-011900-
   Central Minnesota

CITY           SKY/WX    TMP DP  RH WIND       PRES   REMARKS
ST CLOUD       SUNNY     74  55  51 NW10      29.74R
6HR MIN TEMP:  65; 6HR MAX TEMP:  75;

SAUK CENTRE    FAIR      70  55  60 NW13      29.76S
PAYNESVILLE    MOSUNNY   70  53  54 W10G18    29.77R
AITKIN         MOSUNNY   72  55  56 W6        29.70R
PINE RIVER     SUNNY     70  54  56 NW12G17   29.75S
BRAINERD       SUNNY     69  51  52 NW12      29.72S
STAPLES        SUNNY     72  52  49 NW12G17   29.73F
LONG PRAIRIE   FAIR      72  54  53 W13       29.76R
LITTLE FALLS   SUNNY     70  50  49 W12       29.74R
LITCHFIELD     MOSUNNY   73  57  56 W10G16    29.77R
BUFFALO        MOSUNNY   73  56  56 W6        29.76R
MAPLE LAKE     MOSUNNY   74  59  60 NW8       29.75S
$$
MNZ037-044-045-052-053-011900-
   East Central Minnesota

CITY           SKY/WX    TMP DP  RH WIND       PRES   REMARKS
PRINCETON      MOSUNNY   73  57  56 W7        29.73R
MORA           MOSUNNY   70  55  60 NW10      29.73R
CAMBRIDGE      MOSUNNY   75  57  53 NW12      29.71R
RUSH CITY      MOSUNNY   71  58  63 W6        29.71S
MOOSE LAKE     PTSUNNY   68  55  64 NW7       29.67F
HINCKLEY       CLOUDY    72  59  64 W7G17     29.70S
CLOQUET        PTSUNNY   66  55  68 W10       29.68S
MCGREGOR       MOSUNNY   70  54  56 W7        29.71R
$$
MNZ071>073-080-081-089-090-097-098-011900-
   Southwest Minnesota

CITY           SKY/WX    TMP DP  RH WIND       PRES   REMARKS
MONTEVIDEO     SUNNY     73  61  64 NW9       29.81R
GRANITE FALLS  SUNNY     73  60  63 W13       29.82R
CANBY          SUNNY     74  51  44 NW6       29.82S
MARSHALL       SUNNY     75  50  41 NW10G18   29.81R
REDWOOD FALLS  SUNNY     75  56  51 NW13      29.79R
OLIVIA         MOSUNNY   73  59  60 NW10      29.79R
PIPESTONE      MOSUNNY   73  59  60 NW7       29.84S
WINDOM         MOSUNNY   73  61  64 NW13      29.82S
WORTHINGTON    MOSUNNY   72  61  68 NW10G16   29.85S
JACKSON        PTSUNNY   73  59  60 W10       29.83S
TRACY          MOSUNNY   75  60  59 N8        29.82S
SLAYTON        CLOUDY    73  59  61 CALM      29.84S
$$
MNZ065>067-074>077-082>085-091>093-011900-
   South Central Minnesota

CITY           SKY/WX    TMP DP  RH WIND       PRES   REMARKS
MANKATO        MOSUNNY   72  55  56 NW9       29.77R
NEW ULM        SUNNY     73  59  60 W12G17    29.79R
ST JAMES       MOSUNNY   75  57  53 W12G17    29.81R
FAIRMONT       MOSUNNY   73  57  56 NW14      29.80S
GLENCOE        MOSUNNY   74  57  54 NW10      29.76R
FARIBAULT      MOSUNNY   79  54  41 W10       29.76R
OWATONNA       MOSUNNY   73  61  64 W12       29.77R
WASECA         MOSUNNY   72  54  53 W10       29.79R
ALBERT LEA     MOSUNNY   73  61  64 W10       29.78R
$$
MNZ078>079-086>088-094>096-011900-
   Southeast Minnesota

CITY           SKY/WX    TMP DP  RH WIND       PRES   REMARKS
ROCHESTER      MOSUNNY   72  65  78 W9        29.77R
6HR MIN TEMP:  64; 6HR MAX TEMP:  73; 6HR PCP:  0.13;

RED WING       PTSUNNY   75  61  60 NW10G17   29.71R
STANTON        MOSUNNY   74  59  59 W9        29.73S
DODGE CENTER   MOSUNNY   73  63  68 W14       29.76R
WINONA         LGT RAIN  70  63  78 N18G30    29.73R
AUSTIN         MOSUNNY   72  61  68 NW10G17   29.77S
PRESTON        PTSUNNY   74  67  80 W9        29.75S
$$
ABBREVIATIONS USED IN REMARKS
   TC - TEMPERATURES IN CELSIUS
  WCI - WIND CHILL INDEX
   HX - HEAT INDEX
  VSB - VISIBILITY
$$



USA.gov is the U.S. government's official web portal to all federal, state and local government web resources and services.